When you browse on this site, cookies collect data to enhance your experience and personalize the content and advertising you see.
Visit our Privacy Policy to learn more. By continuing to use the site, you agree to this use of cookies and data.
  • In Switzerland
  • List of Countries
  • For 7 days
  • Water Temperature
  • Satellite Maps
  • Weather Map
  • Weather Widgets
  • user-avatar
    Login

    Hourly Weather Tokmak

    Today, 17 June, Monday

    Time Temperature Precipitation Wind Pressure Humidity
    00:00 -4°C° 0 mm 3 mps 482 mmHg 74%
    01:00 -4°C° 0 mm 4 mps 481 mmHg 73%
    02:00 -4°C° 0 mm 4 mps 481 mmHg 71%
    03:00 -4°C° 0 mm 3 mps 481 mmHg 70%
    04:00 -4°C° 0 mm 3 mps 481 mmHg 69%
    05:00 -4°C° 0 mm 3 mps 481 mmHg 68%
    06:00 -1°C° 0 mm 2 mps 482 mmHg 64%
    07:00 +1°C° 0 mm 2 mps 483 mmHg 60%
    08:00 +4°C° 0 mm 1 mps 485 mmHg 56%
    09:00 +4°C° 0.1 mm 2 mps 485 mmHg 55%
    10:00 +4°C° 0.1 mm 2 mps 485 mmHg 54%
    11:00 +5°C° 0.1 mm 2 mps 486 mmHg 53%
    12:00 +5°C° 0.4 mm 2 mps 485 mmHg 55%
    13:00 +5°C° 0.4 mm 2 mps 485 mmHg 57%
    14:00 +5°C° 0.4 mm 3 mps 485 mmHg 59%
    15:00 +4°C° 0.4 mm 3 mps 485 mmHg 62%
    16:00 +4°C° 0.4 mm 3 mps 485 mmHg 65%
    17:00 +3°C° 0.4 mm 3 mps 484 mmHg 68%
    18:00 +3°C° 0.2 mm 2 mps 484 mmHg 71%
    19:00 +2°C° 0.2 mm 2 mps 483 mmHg 74%
    20:00 +1°C° 0.2 mm 1 mps 482 mmHg 77%
    21:00 +1°C° 0 mm 1 mps 482 mmHg 77%
    22:00 -2°C° 0 mm 2 mps 482 mmHg 76%
    23:00 -2°C° 0 mm 2 mps 481 mmHg 76%

    Tomorrow, 18 June, Tuesday

    Time Temperature Precipitation Wind Pressure Humidity
    00:00 -2°C° 0 mm 2 mps 481 mmHg 75%
    01:00 -2°C° 0 mm 3 mps 481 mmHg 75%
    02:00 -2°C° 0 mm 3 mps 481 mmHg 75%
    03:00 -2°C° 0 mm 3 mps 481 mmHg 74%
    04:00 -2°C° 0 mm 3 mps 481 mmHg 74%
    05:00 -2°C° 0 mm 2 mps 481 mmHg 73%
    06:00 -1°C° 0 mm 2 mps 482 mmHg 68%
    07:00 +3°C° 0 mm 1 mps 483 mmHg 62%
    08:00 +5°C° 0 mm 1 mps 484 mmHg 57%
    09:00 +6°C° 0.1 mm 1 mps 485 mmHg 54%
    10:00 +7°C° 0.1 mm 1 mps 485 mmHg 50%
    11:00 +6°C° 0.1 mm 2 mps 485 mmHg 47%
    12:00 +6°C° 0.4 mm 2 mps 485 mmHg 50%
    13:00 +5°C° 0.4 mm 3 mps 485 mmHg 53%
    14:00 +5°C° 0.4 mm 3 mps 485 mmHg 56%
    15:00 +5°C° 0.4 mm 3 mps 484 mmHg 59%
    16:00 +4°C° 0.4 mm 3 mps 484 mmHg 62%
    17:00 +4°C° 0.4 mm 3 mps 484 mmHg 64%
    18:00 +2°C° 0.1 mm 3 mps 483 mmHg 69%
    19:00 +2°C° 0.1 mm 2 mps 482 mmHg 73%
    20:00 +1°C° 0.1 mm 1 mps 482 mmHg 78%
    21:00 +1°C° 0 mm 1 mps 482 mmHg 77%
    22:00 +1°C° 0 mm 1 mps 482 mmHg 76%
    23:00 +1°C° 0 mm 1 mps 482 mmHg 75%

    Day after tomorrow, 19 June, Wednesday

    Time Temperature Precipitation Wind Pressure Humidity
    00:00 0°C° 0 mm 1 mps 481 mmHg 73%
    01:00 -2°C° 0 mm 2 mps 481 mmHg 72%
    02:00 -2°C° 0 mm 2 mps 481 mmHg 71%
    03:00 -2°C° 0 mm 2 mps 481 mmHg 71%
    04:00 0°C° 0 mm 1 mps 481 mmHg 71%
    05:00 0°C° 0 mm 1 mps 481 mmHg 70%
    06:00 +1°C° 0.1 mm 1 mps 482 mmHg 68%
    07:00 +3°C° 0.1 mm 1 mps 483 mmHg 65%
    08:00 +4°C° 0.1 mm 1 mps 483 mmHg 63%
    09:00 +4°C° 0.5 mm 1 mps 484 mmHg 63%
    10:00 +5°C° 0.5 mm 1 mps 484 mmHg 63%
    11:00 +4°C° 0.5 mm 2 mps 484 mmHg 63%
    12:00 +4°C° 1.2 mm 2 mps 483 mmHg 67%
    13:00 +3°C° 1.2 mm 2 mps 483 mmHg 72%
    14:00 +3°C° 1.2 mm 2 mps 482 mmHg 76%
    15:00 +2°C° 1 mm 2 mps 482 mmHg 76%
    16:00 +1°C° 1 mm 2 mps 482 mmHg 76%
    17:00 +1°C° 1 mm 2 mps 482 mmHg 77%
    18:00 -1°C° 0.4 mm 2 mps 482 mmHg 78%
    19:00 -2°C° 0.4 mm 2 mps 482 mmHg 78%
    20:00 -2°C° 0.4 mm 2 mps 482 mmHg 79%
    21:00 -3°C° 0.1 mm 2 mps 482 mmHg 78%
    22:00 -3°C° 0.1 mm 2 mps 482 mmHg 76%
    23:00 -3°C° 0.1 mm 2 mps 481 mmHg 74%

    20 June, Thursday

    Time Temperature Precipitation Wind Pressure Humidity
    00:00 -3°C° 0 mm 2 mps 481 mmHg 73%
    01:00 -4°C° 0 mm 2 mps 481 mmHg 72%
    02:00 -5°C° 0 mm 3 mps 481 mmHg 70%
    03:00 -5°C° 0 mm 3 mps 481 mmHg 70%
    04:00 -4°C° 0 mm 3 mps 481 mmHg 70%
    05:00 -4°C° 0 mm 3 mps 481 mmHg 70%
    06:00 -2°C° 0 mm 2 mps 482 mmHg 67%
    07:00 +1°C° 0 mm 2 mps 483 mmHg 63%
    08:00 +4°C° 0 mm 1 mps 485 mmHg 60%
    09:00 +5°C° 0.1 mm 1 mps 485 mmHg 56%
    10:00 +6°C° 0.1 mm 1 mps 486 mmHg 53%
    11:00 +7°C° 0.1 mm 1 mps 486 mmHg 49%
    12:00 +7°C° 0.5 mm 1 mps 486 mmHg 51%
    13:00 +7°C° 0.5 mm 2 mps 486 mmHg 52%
    14:00 +7°C° 0.5 mm 2 mps 486 mmHg 54%
    15:00 +6°C° 0.5 mm 2 mps 485 mmHg 56%
    16:00 +6°C° 0.5 mm 2 mps 485 mmHg 59%
    17:00 +6°C° 0.5 mm 2 mps 485 mmHg 61%
    18:00 +4°C° 0.2 mm 2 mps 484 mmHg 67%
    19:00 +3°C° 0.2 mm 1 mps 483 mmHg 72%
    20:00 +2°C° 0.2 mm 1 mps 482 mmHg 77%
    21:00 +1°C° 0 mm 1 mps 482 mmHg 75%
    22:00 -1°C° 0 mm 2 mps 482 mmHg 74%
    23:00 -1°C° 0 mm 2 mps 482 mmHg 72%

    21 June, Friday

    Time Temperature Precipitation Wind Pressure Humidity
    00:00 -1°C° 0 mm 2 mps 482 mmHg 71%
    01:00 -1°C° 0 mm 3 mps 481 mmHg 71%
    02:00 -1°C° 0 mm 3 mps 481 mmHg 70%
    03:00 -1°C° 0 mm 3 mps 481 mmHg 69%
    04:00 -1°C° 0 mm 3 mps 481 mmHg 68%
    05:00 -1°C° 0 mm 3 mps 482 mmHg 67%
    06:00 +2°C° 0 mm 2 mps 483 mmHg 61%
    07:00 +4°C° 0 mm 2 mps 484 mmHg 55%
    08:00 +7°C° 0 mm 1 mps 486 mmHg 49%
    09:00 +8°C° 0.2 mm 1 mps 486 mmHg 47%
    10:00 +9°C° 0.2 mm 1 mps 487 mmHg 45%
    11:00 +9°C° 0.2 mm 1 mps 487 mmHg 43%
    12:00 +9°C° 0.5 mm 2 mps 487 mmHg 44%
    13:00 +9°C° 0.5 mm 2 mps 487 mmHg 45%
    14:00 +9°C° 0.5 mm 3 mps 487 mmHg 45%
    15:00 +9°C° 0.5 mm 3 mps 487 mmHg 48%
    16:00 +8°C° 0.5 mm 3 mps 486 mmHg 51%
    17:00 +8°C° 0.5 mm 3 mps 486 mmHg 54%
    18:00 +6°C° 0.3 mm 2 mps 485 mmHg 60%
    19:00 +4°C° 0.3 mm 2 mps 483 mmHg 66%
    20:00 +3°C° 0.3 mm 1 mps 482 mmHg 72%
    21:00 +3°C° 0.1 mm 1 mps 482 mmHg 70%
    22:00 +1°C° 0.1 mm 2 mps 482 mmHg 68%
    23:00 +1°C° 0.1 mm 2 mps 482 mmHg 66%

    22 June, Saturday

    Time Temperature Precipitation Wind Pressure Humidity
    00:00 0°C° 0 mm 3 mps 482 mmHg 66%
    01:00 0°C° 0 mm 3 mps 482 mmHg 66%
    02:00 0°C° 0 mm 3 mps 481 mmHg 66%
    03:00 -1°C° 0 mm 4 mps 481 mmHg 66%
    04:00 -1°C° 0 mm 4 mps 481 mmHg 65%
    05:00 -1°C° 0 mm 4 mps 482 mmHg 65%
    06:00 +2°C° 0 mm 3 mps 483 mmHg 59%
    07:00 +5°C° 0 mm 2 mps 484 mmHg 53%
    08:00 +7°C° 0 mm 2 mps 486 mmHg 47%
    09:00 +7°C° 0.3 mm 2 mps 486 mmHg 48%
    10:00 +7°C° 0.3 mm 2 mps 486 mmHg 50%
    11:00 +7°C° 0.3 mm 3 mps 486 mmHg 51%
    12:00 +7°C° 0.5 mm 3 mps 486 mmHg 53%
    13:00 +7°C° 0.5 mm 3 mps 486 mmHg 56%
    14:00 +7°C° 0.5 mm 3 mps 486 mmHg 58%
    15:00 +6°C° 0.6 mm 2 mps 485 mmHg 65%
    16:00 +4°C° 0.6 mm 2 mps 484 mmHg 72%
    17:00 +3°C° 0.6 mm 2 mps 484 mmHg 80%
    18:00 +2°C° 0.9 mm 2 mps 483 mmHg 83%
    19:00 +1°C° 0.9 mm 2 mps 483 mmHg 86%
    20:00 -1°C° 0.9 mm 2 mps 483 mmHg 89%
    21:00 -1°C° 0.4 mm 2 mps 483 mmHg 87%
    22:00 -1°C° 0.4 mm 2 mps 483 mmHg 84%
    23:00 -1°C° 0.4 mm 2 mps 483 mmHg 81%
    Show more